カタログに戻る

STARLINK-5677

運用中通信VLEO
NORAD 55463·PAYLOAD·🇺🇸 United States

打ち上げ Feb 2, 2023 から Cape Canaveral Space Force Station

Loading…

次のパス (今後24時間)

TLE

最新Source: CelesTrak SupGP

元期: Sep 14, 2026, 20:44 UTC

1 55463C 23015Q   26257.86437500  .00013292  00000+0  58069-3 0  2573
2 55463  42.9994 354.7099 0008748 339.9288  99.1049 15.21276719    12

AllMySatでSTARLINK-5677をリアルタイム追跡

Download on the App Store